Voltar ao catálogo

STARLINK-31578

AtivoComunicaçõesVLEO
NORAD 59321·PAYLOAD·🇺🇸 United States

Lançado Mar 25, 2024 de Cape Canaveral Space Force Station

Loading…

Próximas Passagens (próximas 24 horas)

TLE

AtualizadoSource: CelesTrak SupGP

Época: Sep 15, 2026, 03:29 UTC

1 59321C 24057B   26258.14562500 -.00035355  00000+0 -12809-2 0  2586
2 59321  43.0001 196.6897 0001266 276.4120 275.8583 15.27586477    14

Acompanhe STARLINK-31578 em tempo real com AllMySat

Download on the App Store